Other Surface Observations
Issued by NWS Tucson, AZ

Home | Current Version | Previous Version | Text Only | Print | Product List | Glossary On
Versions: 1 2 3 4 5 6 7 8 9 10 11 12 13 14 15 16 17 18 19 20 21 22 23 24 25 26 27 28 29 30 31 32 33 34 35 36 37 38 39 40 41 42 43 44 45 46 47 48 49 50
009
SXUS55 KTWC 291616
OSOTWC

WEATHER ROUNDUP FOR SOUTHEAST ARIZONA
NATIONAL WEATHER SERVICE TUCSON AZ
915 AM MST WED MAR 29 2017

AZZ504>506-514-291715-
LOCATION       SKY/WX    TMP DP  RH WIND       PRES   REMARKS
TUCSON         SUNNY     60  27  28 CALM      30.04R
DAVIS-MONTHAN  SUNNY     60  25  26 VRB3      30.03R
CHILDRENS PARK N/A      N/A N/A  45 SE4               PIMA CO DEQ
ALVERNON/22ND  N/A       53 N/A N/A SE4               PIMA CO DEQ
CHERRY/GLENN   N/A       56 N/A N/A SE5               PIMA CO DEQ
TANGERINE      N/A       56 N/A N/A E2                PIMA CO DEQ
CONTL RANCH    N/A       52  33  49 SE5               PIMA CO DEQ
GRANT/1ST      N/A       54  30  40 SE3               PIMA CO DEQ
CRAYCROFT/22ND N/A       54  30  39 N/A               PIMA CO DEQ
GOLFLINKS/KOLB N/A       53  29  39 S4                PIMA CO DEQ
AJO/12TH       N/A       53  32  45 S6                PIMA CO DEQ
FAIRGROUNDS    N/A       53 N/A N/A E4                PIMA CO DEQ
SAGUARO        N/A       62  32  32 NE2               *SABINO CYN
SAN CARLOS     N/A       56  37  48 E3                *SAN CARLOS
GREEN VALLEY   N/A       51  30  44 S5                PIMA CO DEQ
HORSE CAMP CYN N/A       57  27  32 N8G15             *ARAVAIPA CYN
RINCON MTNS    N/A       39  23  52 NW6G14            *NR MANNING CAMP
$$

AZZ509>511-291715-
LOCATION       SKY/WX    TMP DP  RH WIND       PRES   REMARKS
SAFFORD        SUNNY     61  29  29 NW20G26   29.98S
STRAY HORSE    N/A       35  27  73 N/A               *
TRAIL CABIN    N/A       45  29  53 NW5               *N OF GRANVILLE
BLACK HILLS    NOT AVBL
DRY LAKE       N/A       39  25  58 N7G18             *NATANES MTNS
NOON CREEK     N/A       57  26  30 NE7G21            *PINALENO MTNS
COLUMBINE      N/A       29  23  78 NE4G17            *PINALENO MTNS
GUTHRIE        N/A       44  26  48 NW11G26           *SW OF GUTHRIE
$$

AZZ502-503-513-291715-
LOCATION       SKY/WX    TMP DP  RH WIND       PRES   REMARKS
NOGALES        SUNNY     58  24  27 VRB3      30.04R
SELLS          N/A       64  28  26 E2                *
SASABE         N/A       55  26  33 SW2               *ALTAR VLY
HOPKINS        N/A       48  24  38 NW6G23            *SANTA RITA MTNS
CARR CYN       N/A       59  25  27 NW3G10            *W OF HEREFORD
$$

AZZ507-508-512-291715-
LOCATION       SKY/WX    TMP DP  RH WIND       PRES   REMARKS
SIERRA VISTA   SUNNY     57  22  26 W8        30.06R
DOUGLAS        SUNNY     59  25  27 NW14      30.04R
EMPIRE MTNS    NOT AVBL
MULESHOE RANCH N/A       53  28  38 NW4               *PRESERVE
HEADQUARTERS   NOT AVBL
$$

.............................NOTES.............................
THIS IS AN AUTOMATED COLLECTIVE WITH MINIMAL QUALITY CONTROL.
PIMA CO DEQ SITES HAVE NONSTANDARD WIND SENSOR HEIGHTS.
PIMA CO DEQ SITES DO NOT REPORT WIND GUSTS.
* INDICATES WIND SENSORS LOCATED AT 20 FEET INSTEAD OF 33 FEET.
..............................KEY..............................
SKY/WX - SKY CONDITION/WEATHER
TMP    - TEMPERATURE IN FAHRENHEIT
DP     - DEWPOINT IN FAHRENHEIT
RH     - RELATIVE HUMIDITY IN PERCENT
WIND   - DIRECTION AND SPEED IN MILES PER HOUR (MPH)
VRB    - VARIABLE WIND DIRECTION
PRES   - MEAN SEA LEVEL PRESSURE IN INCHES OF MERCURY
         F - FALLING PRESSURE   R - RISING PRESSURE
         S - STEADY PRESSURE
VSB    - VISIBILITY IN MILES
HX     - HEAT INDEX IN FAHRENHEIT
WCI    - WIND CHILL INDEX IN FAHRENHEIT
N/A    - NOT AVAILABLE
AFB    - AIR FORCE BASE
         DAVIS-MONTHAN IS DAVIS-MONTHAN AIR FORCE BASE
CYN    - CANYON
MTNS   - MOUNTAINS
NCA    - NATIONAL CONSERVATION AREA
NR     - NEAR
VLY    - VALLEY
CONTL  - CONTINENTAL
PIMA CO DEQ - PIMA COUNTY DEPT OF ENVIRONMENTAL QUALITY



USA.gov is the U.S. government's official web portal to all federal, state and local government web resources and services.